Regional Weather Roundup
Issued by NWS Jackson, KY

Home | Current Version | Previous Version | Graphics & Text | Print | Product List | Glossary On
Versions: 1 2 3 4 5 6 7 8 9 10 11 12 13 14 15 16 17 18 19 20 21 22 23 24 25 26 27 28 29 30 31 32 33 34 35 36 37 38 39 40 41 42 43 44 45 46 47 48 49 50
000
ASUS43 KJKL 012211
RWRJKL

EAST KENTUCKY HOURLY WEATHER ROUNDUP
NATIONAL WEATHER SERVICE JACKSON KY
500 PM EST SUN FEB 01 2015

NOTE: "FAIR" INDICATES FEW OR NO CLOUDS BELOW 12,000 FEET WITH
NO SIGNIFICANT WEATHER AND/OR OBSTRUCTIONS TO VISIBILITY.

* THESE REPORTS ARE NOT UNDER NWS QUALITY CONTROL AND MAY NOT
  REPORT WEATHER SUCH AS PRECIPITATION AND FOG.

KYZ079-080-083-085-087-088-110-112-115-119-120-012300
...EASTERN KENTUCKY...

CITY           SKY/WX    TMP DP  RH WIND       PRES   REMARKS
JACKSON        LGT RAIN  46  41  82 VRB5      29.73F
LONDON         RAIN      49  42  77 S8        29.76S
SOMERSET*      RAIN      45  45 100 S8        29.74F
MONTICELLO*    CLOUDY    50  47  89 S13       29.74F FOG
MIDDLESBORO*   RAIN      45  40  83 S7        29.82S
HARLAN APT*    CLOUDY    41  37  87 NE6       29.82S
HAZARD APT*    LGT RAIN  48  43  81 S13       29.74
BLACK MTN*       N/A     36  36 100 SE2         N/A
PIKEVILLE APT* RAIN      45  37  76 S9G17     29.76F
BIG SANDY*     RAIN      45  40  82 S14       29.76F
MOREHEAD APT*  LGT RAIN  43  41  93 VRB3      29.74F
$$

KYZ035-036-041-042-044-050-067-078-099-012300
...CENTRAL KENTUCKY...

CITY           SKY/WX    TMP DP  RH WIND       PRES   REMARKS
MT STERLING*   LGT RAIN  43  43 100 SW12G20   29.71F
FLEMING/MASON* LGT RAIN  40  39  94 S14       29.69F WCI  33
DANVILLE*      LGT RAIN  45  43  93 S9        29.70F
RICHMOND*      CLOUDY    45  43  93 S8        29.70F
LEXINGTON      LGT RAIN  45  43  93 S15       29.66F
FRANKFORT      CLOUDY    44  42  93 S9        29.64F
$$

KYZ091>093-OHZ055-061-077-WVZ005-015-034-035-042-012300
...SOUTHERN OHIO/WEST VIRGINIA...

CITY           SKY/WX    TMP DP  RH WIND       PRES   REMARKS
COVINGTON      LGT RAIN  43  40  89 S16       29.62F FOG
COLUMBUS       LGT RAIN  36  31  82 SE14      29.70F WCI  27
DAYTON         LGT RAIN  41  40  96 S16       29.62F FOG
WILMINGTON     CLOUDY    38  36  92 S13       29.64F FOG     WCI  30
HUNTINGTON     RAIN      44  40  85 VRB7      29.74F FOG
CHARLESTON     LGT RAIN  46  36  68 S9        29.79F
PINEVILLE*     LGT RAIN  44  40  84 MISG      29.90F
BECKLEY        LGT RAIN  40  32  73 S8        29.86F WCI  34
BLUEFIELD      CLOUDY    45  27  49 S8G22     29.88F
$$

VAZ002-007-008-TNZ017-027-036-066-071-012300
...SOUTHWEST VIRGINIA/EAST TENNESSEE...

CITY           SKY/WX    TMP DP  RH WIND       PRES   REMARKS
WISE*          DRIZZLE   41  32  70 S8        29.82F
JONESVILLE*    LGT RAIN  39  37  93 NE3       29.86F
ABINGDON*      LGT RAIN  50  36  58 SW6       29.86F
BRISTOL        LGT RAIN  50  41  71 S7        29.85F
KNOXVILLE      LGT RAIN  44  42  93 N3        29.82F
OAK RIDGE      CLOUDY    44  42  93 CALM      29.84F
CROSSVILLE     CLOUDY    47  44  90 S10G29    29.77F
NASHVILLE      LGT RAIN  54  52  93 S21       29.68F
$$

...KEY TO REMARKS...
VSB - VISIBILITY IN MILES
WCI - WIND CHILL INDEX
HX  - HEAT INDEX

$$


USA.gov is the U.S. government's official web portal to all federal, state and local government web resources and services.